AAL2295 KMIA-KMCO

Flight info

Callsign AAL2295
Flight time 0h 40m
Altitude 22000
Route FLMGO2 WAPOM MUNGI1
Aircraft A320/M-SDE3FGHIRWY/LB1

Departure

Time 2026-04-26 17:29
Airport Miami International Airport (KMIA)

Arrival

Time 2026-04-26 18:09
Airport Orlando International Airport (KMCO)
Time Latitude Longitude Altitude Speed Heading
2026-04-26 17:07 25.79735 -80.28351 17 ft 0 kts 357°
2026-04-26 17:19 25.79701 -80.28350 20 ft 3 kts 357°
2026-04-26 17:19 25.79679 -80.28343 21 ft 4 kts 304°
2026-04-26 17:19 25.79675 -80.28319 19 ft 4 kts 267°
2026-04-26 17:20 25.79675 -80.28308 20 ft 0 kts 267°
2026-04-26 17:22 25.79675 -80.28311 20 ft 1 kts 268°
2026-04-26 17:23 25.79675 -80.28325 18 ft 3 kts 268°
2026-04-26 17:23 25.79674 -80.28351 18 ft 5 kts 268°
2026-04-26 17:23 25.79672 -80.28396 18 ft 7 kts 267°
2026-04-26 17:23 25.79669 -80.28458 19 ft 9 kts 266°
2026-04-26 17:24 25.79661 -80.28534 22 ft 11 kts 259°
2026-04-26 17:24 25.79651 -80.28620 19 ft 12 kts 265°
2026-04-26 17:24 25.79643 -80.28717 20 ft 13 kts 265°
2026-04-26 17:24 25.79677 -80.28807 20 ft 15 kts 339°
2026-04-26 17:25 25.79785 -80.28815 20 ft 17 kts 357°
2026-04-26 17:25 25.79906 -80.28822 24 ft 18 kts 357°
2026-04-26 17:25 25.80008 -80.28860 23 ft 16 kts 289°
2026-04-26 17:25 25.80008 -80.28995 20 ft 19 kts 267°
2026-04-26 17:26 25.80002 -80.29144 22 ft 19 kts 267°
2026-04-26 17:26 25.79995 -80.29301 20 ft 22 kts 267°
2026-04-26 17:26 25.79989 -80.29473 14 ft 20 kts 267°
2026-04-26 17:26 25.79983 -80.29614 14 ft 16 kts 267°
2026-04-26 17:27 25.79977 -80.29744 14 ft 18 kts 267°
2026-04-26 17:27 25.79971 -80.29882 12 ft 17 kts 267°
2026-04-26 17:27 25.79991 -80.30018 12 ft 19 kts 285°
2026-04-26 17:27 25.80046 -80.30127 15 ft 14 kts 342°
2026-04-26 17:28 25.80077 -80.30040 13 ft 17 kts 88°
2026-04-26 17:28 25.80087 -80.29730 14 ft 72 kts 87°
2026-04-26 17:28 25.80119 -80.28957 21 ft 126 kts 87°
2026-04-26 17:28 25.80167 -80.27813 110 ft 161 kts 90°
2026-04-26 17:29 25.80248 -80.26578 770 ft 162 kts 89°
2026-04-26 17:29 25.80299 -80.25742 1160 ft 166 kts 89°
2026-04-26 17:29 25.80378 -80.23972 1825 ft 182 kts 89°
2026-04-26 17:29 25.80435 -80.22475 2046 ft 208 kts 88°
2026-04-26 17:30 25.80493 -80.20758 2372 ft 235 kts 89°
2026-04-26 17:30 25.80548 -80.18883 2949 ft 254 kts 88°
2026-04-26 17:30 25.80975 -80.16978 3805 ft 262 kts 59°
2026-04-26 17:30 25.82346 -80.15639 4621 ft 272 kts 23°
2026-04-26 17:31 25.84222 -80.15310 5506 ft 276 kts
2026-04-26 17:31 25.86147 -80.15397 6442 ft 278 kts 355°
2026-04-26 17:31 25.88081 -80.15562 7324 ft 280 kts 353°
2026-04-26 17:31 25.90000 -80.15953 8143 ft 282 kts 341°
2026-04-26 17:32 25.91851 -80.16672 9023 ft 283 kts 339°
2026-04-26 17:32 25.93733 -80.17348 9912 ft 285 kts 340°
2026-04-26 17:32 25.95646 -80.17988 10648 ft 288 kts 341°
2026-04-26 17:32 25.97621 -80.18671 11016 ft 307 kts 338°
2026-04-26 17:33 25.99573 -80.19808 11265 ft 326 kts 322°
2026-04-26 17:33 26.01274 -80.21540 11826 ft 335 kts 314°
2026-04-26 17:33 26.02987 -80.23318 12534 ft 339 kts 317°
2026-04-26 17:34 26.06596 -80.26734 13994 ft 343 kts 318°
2026-04-26 17:34 26.08408 -80.28473 14637 ft 345 kts 317°
2026-04-26 17:34 26.10219 -80.30249 15245 ft 348 kts 317°
2026-04-26 17:34 26.12027 -80.32053 15838 ft 351 kts 317°
2026-04-26 17:35 26.13847 -80.33883 16449 ft 354 kts 317°
2026-04-26 17:35 26.15687 -80.35731 17082 ft 356 kts 317°
2026-04-26 17:35 26.17535 -80.37583 17696 ft 359 kts 317°
2026-04-26 17:35 26.19399 -80.39447 18313 ft 362 kts 317°
2026-04-26 17:36 26.21283 -80.41324 18860 ft 364 kts 317°
2026-04-26 17:36 26.23315 -80.43031 19400 ft 369 kts 327°
2026-04-26 17:36 26.25617 -80.44339 19954 ft 373 kts 333°
2026-04-26 17:36 26.27950 -80.45568 20514 ft 376 kts 333°
2026-04-26 17:37 26.30324 -80.46821 20863 ft 379 kts 333°
2026-04-26 17:37 26.32712 -80.48082 20949 ft 380 kts 333°
2026-04-26 17:37 26.35106 -80.49351 20969 ft 381 kts 333°
2026-04-26 17:38 26.39893 -80.51907 20968 ft 381 kts 333°
2026-04-26 17:38 26.42284 -80.53183 20969 ft 381 kts 333°
2026-04-26 17:38 26.44681 -80.54460 20965 ft 381 kts 333°
2026-04-26 17:38 26.47068 -80.55730 20966 ft 380 kts 333°
2026-04-26 17:39 26.49527 -80.56812 20968 ft 382 kts 342°
2026-04-26 17:39 26.52086 -80.57621 20970 ft 382 kts 342°
2026-04-26 17:39 26.54641 -80.58430 20963 ft 382 kts 342°
2026-04-26 17:39 26.57196 -80.59240 20969 ft 382 kts 342°
2026-04-26 17:40 26.59757 -80.60050 20966 ft 382 kts 342°
2026-04-26 17:40 26.60619 -80.60324 20965 ft 382 kts 342°
2026-04-26 17:40 26.64871 -80.61673 20971 ft 382 kts 342°
2026-04-26 17:40 26.67428 -80.62484 20973 ft 382 kts 342°
2026-04-26 17:41 26.69988 -80.63301 20971 ft 382 kts 342°
2026-04-26 17:41 26.72547 -80.64120 20966 ft 382 kts 342°
2026-04-26 17:41 26.75108 -80.64939 20965 ft 382 kts 342°
2026-04-26 17:41 26.77662 -80.65754 20968 ft 382 kts 342°
2026-04-26 17:42 26.80224 -80.66566 20973 ft 382 kts 342°
2026-04-26 17:42 26.82784 -80.67376 20969 ft 382 kts 342°
2026-04-26 17:42 26.85342 -80.68191 20967 ft 382 kts 342°
2026-04-26 17:42 26.87900 -80.69011 20979 ft 382 kts 342°
2026-04-26 17:43 26.90464 -80.69833 20968 ft 383 kts 342°
2026-04-26 17:43 26.92986 -80.70674 20979 ft 383 kts 341°
2026-04-26 17:43 26.95518 -80.71597 20965 ft 383 kts 339°
2026-04-26 17:43 26.98039 -80.72563 20966 ft 383 kts 339°
2026-04-26 17:44 27.00556 -80.73548 20961 ft 383 kts 339°
2026-04-26 17:44 27.03073 -80.74530 20968 ft 383 kts 339°
2026-04-26 17:44 27.05592 -80.75504 20961 ft 383 kts 339°
2026-04-26 17:44 27.08116 -80.76469 20964 ft 383 kts 339°
2026-04-26 17:45 27.10644 -80.77432 20966 ft 383 kts 339°
2026-04-26 17:45 27.13169 -80.78393 20971 ft 383 kts 339°
2026-04-26 17:45 27.15697 -80.79354 20961 ft 384 kts 339°
2026-04-26 17:45 27.18232 -80.80313 20974 ft 384 kts 340°
2026-04-26 17:46 27.20763 -80.81271 20971 ft 384 kts 340°
2026-04-26 17:46 27.23297 -80.82232 20960 ft 384 kts 340°
2026-04-26 17:46 27.25830 -80.83191 20966 ft 384 kts 340°
2026-04-26 17:46 27.28362 -80.84152 20957 ft 384 kts 339°
2026-04-26 17:47 27.30893 -80.85114 20969 ft 384 kts 339°
2026-04-26 17:47 27.31749 -80.85440 20966 ft 384 kts 340°
2026-04-26 17:47 27.36009 -80.86878 20960 ft 385 kts 343°
2026-04-26 17:47 27.38606 -80.87638 20961 ft 385 kts 344°
2026-04-26 17:48 27.41204 -80.88367 20963 ft 385 kts 344°
2026-04-26 17:48 27.43803 -80.89090 20969 ft 385 kts 344°
2026-04-26 17:48 27.46402 -80.89826 20969 ft 385 kts 343°
2026-04-26 17:48 27.48963 -80.90569 20964 ft 385 kts 343°
2026-04-26 17:49 27.51550 -80.91337 20956 ft 385 kts 343°
2026-04-26 17:49 27.54138 -80.92114 20966 ft 385 kts 343°
2026-04-26 17:49 27.56724 -80.92893 20962 ft 385 kts 343°
2026-04-26 17:49 27.59310 -80.93671 20963 ft 385 kts 343°
2026-04-26 17:50 27.61897 -80.94449 20974 ft 385 kts 343°
2026-04-26 17:50 27.64483 -80.95224 20969 ft 385 kts 343°
2026-04-26 17:50 27.67069 -80.95998 20973 ft 384 kts 343°
2026-04-26 17:50 27.69656 -80.96769 20964 ft 384 kts 343°
2026-04-26 17:51 27.72247 -80.97538 20967 ft 384 kts 343°
2026-04-26 17:51 27.74832 -80.98305 20957 ft 383 kts 343°
2026-04-26 17:51 27.77392 -80.99066 20570 ft 379 kts 343°
2026-04-26 17:51 27.79935 -80.99825 20046 ft 375 kts 343°
2026-04-26 17:52 27.82443 -81.00576 19584 ft 372 kts 343°
2026-04-26 17:52 27.84942 -81.01326 19105 ft 370 kts 343°
2026-04-26 17:52 27.87420 -81.02069 18624 ft 367 kts 343°
2026-04-26 17:52 27.89883 -81.02810 18132 ft 366 kts 343°
2026-04-26 17:53 27.92335 -81.03547 17623 ft 362 kts 343°
2026-04-26 17:53 27.93932 -81.04080 17316 ft 358 kts 338°
2026-04-26 17:53 27.96254 -81.05061 16825 ft 354 kts 337°
2026-04-26 17:54 28.00829 -81.06996 15855 ft 348 kts 337°
2026-04-26 17:54 28.03094 -81.07958 15380 ft 345 kts 337°
2026-04-26 17:54 28.05336 -81.08907 14901 ft 343 kts 337°
2026-04-26 17:54 28.07564 -81.09850 14424 ft 341 kts 337°
2026-04-26 17:55 28.09777 -81.10796 13953 ft 339 kts 337°
2026-04-26 17:55 28.11978 -81.11759 13442 ft 338 kts 336°
2026-04-26 17:55 28.14164 -81.12727 12961 ft 335 kts 336°
2026-04-26 17:55 28.16330 -81.13690 12474 ft 332 kts 336°
2026-04-26 17:56 28.18474 -81.14643 12033 ft 329 kts 336°
2026-04-26 17:56 28.22682 -81.16507 11249 ft 321 kts 336°
2026-04-26 17:57 28.26740 -81.18240 10999 ft 299 kts 342°
2026-04-26 17:57 28.28786 -81.18567 10788 ft 296 kts 356°
2026-04-26 17:57 28.30833 -81.18601 10233 ft 293 kts 356°
2026-04-26 17:57 28.32839 -81.18637 9586 ft 293 kts 356°
2026-04-26 17:58 28.38536 -81.18728 8709 ft 253 kts 356°
2026-04-26 17:59 28.42068 -81.18780 8252 ft 254 kts 356°
2026-04-26 17:59 28.43839 -81.18796 7932 ft 254 kts 356°
2026-04-26 17:59 28.45604 -81.18807 7635 ft 254 kts 356°
2026-04-26 17:59 28.47360 -81.18815 7435 ft 248 kts 357°
2026-04-26 18:00 28.49060 -81.18822 7309 ft 240 kts 356°
2026-04-26 18:00 28.50700 -81.18834 7132 ft 232 kts 355°
2026-04-26 18:00 28.52301 -81.18854 6692 ft 229 kts 356°
2026-04-26 18:00 28.53891 -81.18879 6226 ft 228 kts 355°
2026-04-26 18:01 28.55470 -81.18907 5735 ft 227 kts 355°
2026-04-26 18:01 28.57043 -81.18938 5285 ft 225 kts 356°
2026-04-26 18:01 28.58608 -81.18970 4869 ft 224 kts 354°
2026-04-26 18:01 28.60160 -81.19001 4449 ft 222 kts 356°
2026-04-26 18:02 28.61690 -81.19033 4253 ft 216 kts 355°
2026-04-26 18:02 28.62666 -81.19054 4166 ft 209 kts 354°
2026-04-26 18:02 28.64585 -81.19126 4043 ft 202 kts 345°
2026-04-26 18:02 28.65759 -81.19818 4025 ft 186 kts 308°
2026-04-26 18:03 28.66239 -81.21133 4002 ft 183 kts 275°
2026-04-26 18:03 28.66264 -81.22585 3999 ft 184 kts 268°
2026-04-26 18:03 28.66229 -81.24018 3993 ft 180 kts 268°
2026-04-26 18:03 28.66192 -81.25452 3993 ft 183 kts 268°
2026-04-26 18:04 28.65946 -81.26840 3985 ft 182 kts 242°
2026-04-26 18:04 28.65105 -81.27901 3727 ft 183 kts 218°
2026-04-26 18:04 28.63897 -81.28433 3437 ft 189 kts 190°
2026-04-26 18:05 28.61261 -81.28432 2996 ft 191 kts 182°
2026-04-26 18:05 28.59924 -81.28418 2956 ft 194 kts 183°
2026-04-26 18:05 28.58577 -81.28403 2764 ft 193 kts 182°
2026-04-26 18:05 28.57230 -81.28390 2533 ft 193 kts 181°
2026-04-26 18:06 28.55884 -81.28376 2288 ft 193 kts 182°
2026-04-26 18:06 28.54550 -81.28362 2043 ft 191 kts 183°
2026-04-26 18:06 28.53233 -81.28348 1801 ft 188 kts 184°
2026-04-26 18:06 28.51948 -81.28335 1550 ft 181 kts 181°
2026-04-26 18:07 28.50731 -81.28321 1326 ft 169 kts 185°
2026-04-26 18:07 28.49620 -81.28309 1116 ft 153 kts 181°
2026-04-26 18:07 28.48587 -81.28299 930 ft 145 kts 182°
2026-04-26 18:07 28.47921 -81.28295 800 ft 145 kts 180°
2026-04-26 18:08 28.46577 -81.28280 589 ft 141 kts 182°
2026-04-26 18:08 28.45590 -81.28265 379 ft 142 kts 186°
2026-04-26 18:08 28.44613 -81.28257 183 ft 141 kts 182°
2026-04-26 18:08 28.43699 -81.28257 99 ft 122 kts 180°
2026-04-26 18:09 28.43016 -81.28244 98 ft 71 kts 179°
2026-04-26 18:09 28.42645 -81.28249 100 ft 33 kts 190°
2026-04-26 18:09 28.42521 -81.28364 99 ft 25 kts 253°
2026-04-26 18:09 28.42459 -81.28557 99 ft 25 kts 251°
2026-04-26 18:10 28.42403 -81.28742 102 ft 24 kts 250°
2026-04-26 18:10 28.42348 -81.28917 104 ft 24 kts 250°
2026-04-26 18:10 28.42292 -81.29121 96 ft 30 kts 260°
2026-04-26 18:10 28.42284 -81.29359 94 ft 30 kts 269°
2026-04-26 18:11 28.42283 -81.29557 94 ft 24 kts 270°
2026-04-26 18:11 28.42324 -81.29702 95 ft 14 kts 345°
2026-04-26 18:11 28.42362 -81.29792 95 ft 16 kts 270°
2026-04-26 18:11 28.42363 -81.29926 95 ft 18 kts 270°
2026-04-26 18:12 28.42361 -81.30079 94 ft 21 kts 270°
2026-04-26 18:12 28.42359 -81.30251 95 ft 23 kts 268°
2026-04-26 18:12 28.42352 -81.30437 94 ft 25 kts 266°
2026-04-26 18:12 28.42339 -81.30639 96 ft 26 kts 265°
2026-04-26 18:13 28.42324 -81.30849 94 ft 28 kts 265°
2026-04-26 18:13 28.42323 -81.31075 94 ft 29 kts 279°
2026-04-26 18:13 28.42350 -81.31309 94 ft 31 kts 271°
2026-04-26 18:13 28.42350 -81.31466 96 ft 31 kts 268°
2026-04-26 18:14 28.42389 -81.31668 99 ft 9 kts 356°
2026-04-26 18:14 28.42450 -81.31633 99 ft 12 kts 32°
2026-04-26 18:14 28.42551 -81.31615 96 ft 18 kts 348°
2026-04-26 18:14 28.42680 -81.31647 97 ft 19 kts 347°
2026-04-26 18:15 28.42778 -81.31672 96 ft 12 kts 347°
2026-04-26 18:15 28.42822 -81.31643 96 ft 7 kts 79°
2026-04-26 18:15 28.42823 -81.31610 94 ft 0 kts 88°